User: anonymous   Login
Location: Unspecified
(0.0000°N, 0.0000°E)
Time: 01:58:23
(UTC+00:00)
Language:

Oscar 16 - Orbit

View from above orbital plane
View from above orbital plane
View from above satellite
View from above satellite

Ground track
Ground track

The orbit data is extracted from the following two-line orbital elements,

1 20439U 90005D   17147.85258378 +.00000012 +00000-0 +20645-4 0  9992
2 20439 098.6083 087.3069 0010012 217.9829 209.2704 14.32680479428494
Epoch (UTC): 27 May 2017 20:27:43
Eccentricity: 0.0010012
inclination: 98.6083°
perigee height: 775 km
apogee height: 790 km
right ascension of ascending node: 87.3069°
argument of perigee: 217.9829°
revolutions per day: 14.32680479
mean anomaly at epoch: 209.2704°
orbit number at epoch: 42849

The dashed part of the orbit path shows where the satellite is in the earth's shadow,  

DLR